STARLINK-32854, 62816

Orbit data source: Space-Track

STARLINK-32854, 62816 is a payload satellite owned by SpaceX/Seattle (US) in LEO that was launched on Fri, 24 Jan 2025 UTC via an FALCON 9 launch vehicle from the Air Force Western Test Range (AFWTR). Payloads include a variety of satellites, spacecraft, and rockets equipped with specific instruments for various scientific and technological missions. These include communications satellites like Starlink; space stations such as the ISS; scientific satellites like the Hubble; Earth observation satellites from companies like Planet Labs, Umbra, and HawkEye 360; GPS; miniature CubeSats for education and research; and military/defense satellites.

Loading next visibility...
STARLINK-32854 details
Identifier
62816, 2025-018L
Orbit
LEO
Last TLE update8 hours ago
Origin
Flag of USSpaceX/Seattle (US)
ManufacturerSpaceX/Seattle
MissionOperational spacecraft
Bus & MotorSTARLINK V2M, Unknown motor
Mass730 kg wet, ~700 kg dry
Launch date (UTC)
2025-01-24 (3 weeks ago)
Launch vehicle
FALCON 9
Launch site
Air Force Western Test Range (AFWTR)
Object type
Payload
Rocket body
Debris
Shape & HBRUnknown
Radar Cross SectionLarge (>1 m²)

Expand to show TLE details & history

TLE from 8 hours ago
0 STARLINK-32854
1 62816U 25018L   25047.16668981 -.01596169  00000-0 -25330-1 0  9995
2 62816  53.1589 312.5112 0000765  78.0450 278.9127 15.55652756  4695
Epoch: 2025-02-16T04:00Z
Definitive object data (Epoch: 2025-02-16T04:00:01.999Z)
Latitude-2.53781°
Longitude104.2069°
Altitude401.449 km
Speed7.671 km/s
True Right ascension20h 42m 28s
True Declination-2° 31' 19"
Sunlit
Object was in daylight at TLE epoch
Visualization TLE readout
Latitude9.10386°
Longitude111.39311°
Altitude403.502 km
Speed7.671 km/s
Apparent Right ascension23h 22m 11s
Apparent Declination-18° 35' 38"
Sunlit
Object is in daylight
Visualization observer readout
Local Sidereal Time14:32:54
Azimuth76.758° E
Elevation-43.951°
Doppler factor1
Orbital elements
Apogee altitude401.034 km
Perigee altitude399.997 km
Semi-major axis6,778.652 km
Eccentricity0.0000765
Inclination53.1589°
RAAN312.5112°
Arg. of periapsis78.045°
True anomaly278.90404°
Mean anomaly278.9127°
Eccentric anomaly278.90837°
Mean motion3.88891 °/min
BSTAR-0.02533
Orbital period92.57 mins
Loading maneuver chart data...
Loading historical data...
Loading historical data...
Loading historical data...
Loading historical data...
Loading historical data...
Loading historical data...
Loading historical data...

STARLINK-32854 Visibility forecast

Observer location: undefined°, undefined

Span
Click to sort rows by Start time (UTC) header in descending order
Start Az.
Max El. time (UTC)
Max El. Az.
Max El.
End time (UTC)
End Az.
5 mins2025-02-16 19:36:29.324Z186.425° SSW2025-02-16 19:38:29.324Z139.181° SSE24.875°2025-02-16 19:41:29.324Z71.622° E
4 mins2025-02-16 21:13:29.324Z282.484° WNW2025-02-16 21:15:29.324Z345.294° N25.23°2025-02-16 21:17:29.324Z27.642° NE
4 mins2025-02-17 03:42:29.324Z275.494° WNW2025-02-17 03:43:29.324Z246.014° WSW28.632°2025-02-17 03:46:29.324Z162.589° S
|